Location: Cheching
(60.0667°N, 164.2167°W)
Time: 15:30:13
(UTC+00:00)

O/OREOS (USA 219) - Pass Details

Date: 20 January 2021
Orbit: 621 x 646 km, 72.0° (Epoch: 22 May)

Event Time Altitude Azimuth Distance (km) Brightness Sun altitude
Rises 04:30:40 0° 318° (NW) 2,962 ? -12.8°
Reaches altitude 10° 04:33:32 10° 300° (WNW) 2,043 ? -13.1°
Maximum altitude 04:36:38 18° 257° (WSW) 1,556 ? -13.5°
Drops below altitude 10° 04:39:44 10° 214° (SW) 2,022 ? -13.9°
Sets 04:42:33 0° 196° (SSW) 2,919 ? -14.2°
